Location: Newark
(46.3506°N, 1.8861°E)
Time: 09:37:31
(UTC+00:00)

OTV 5 (USA 277) - Visible Passes

Search period start: 21 October 2019 00:00
Search period end: 31 October 2019 00:00
Orbit: 310 x 324 km, 54.5° (Epoch: 17 October)

Date Brightness Start Highest point End Pass type
(mag) Time Alt. Az. Time Alt. Az. Time Alt. Az.
28 Oct ? 18:37:44 10° SSW 18:38:41 18° SSW 18:38:41 18° SSW visible
29 Oct ? 17:20:13 10° SE 17:20:55 11° SE 17:21:37 10° ESE visible
29 Oct ? 18:52:05 10° WSW 18:53:10 21° WSW 18:53:10 21° WSW visible
30 Oct ? 17:32:53 10° SSW 17:35:13 25° SE 17:36:39 16° E visible
30 Oct ? 19:06:53 10° W 19:07:33 15° W 19:07:33 15° W visible
